CZ-6A DEB

Satellite information

Favourite Embed

Satellite Type and Status

DEBRISIN ORBIT

Key statistics

Satellite CZ-6A DEB at a glance.

Uptime

495

Days in orbit

Revolutions

≈ 14.5

Per day

Orbit

LEO

Low Earth Orbit

Inclination

89.0

Latest

Satellite identification and parameters

Extended collection of information and parameters for CZ-6A DEB.

Object identification

Identified? True

Debris? True

Object name: CZ-6A DEB

International designator: 2024-140YF

Object number (NORAD): 61414

Object ID (CCSDS): 61414

Country: PEOPLES REPUBLIC OF CHINA (PRC)

Current information (Y/N): Y

RCS size: SMALL

Orbital parameters

Period: 99.103 minutes

Inclination: 88.9856 deg

SMA: 7093.899 km

Apoapsis: 778.932 km

Periapsis: 652.596 km

RAAN: 292.0373 deg

Eccentricy: 0.00890453

Argument of periapsis: 182.8925 deg

Mean anomaly: 177.1782 deg

Mean motion: 14.5303223 rev/day

Mean motion (dot): 0.00003987 rev/day2

B* drag term: 0.00091274246 1/REarth

Two-line elements (TLE)

Creation date: Dec. 12, 2025, 3:16 a.m.

Reference frame: TEME

Reference center: EARTH

Epoch: Dec. 11, 2025, 7:51 p.m. UTC

TLE line 0: 0 CZ-6A DEB

TLE line 1: 1 61414U 24140YF 25345.82725641 .00003987 00000-0 91274-3 0 9994

TLE line 2: 2 61414 88.9856 292.0373 0089045 182.8925 177.1782 14.53032230 66535

Live tracking on map

Real-time ground track for satellite CZ-6A DEB.

In-orbit conjunctions

A list of the most updated potential collisions computed for object CZ-6A DEB.

Target Orbit TCA Probability of collision Miss distance Type
CSTB 1 SSO 2025-03-23 13:07:48 0.0002282003 253.0 (m) PAYLOAD
METEOR 2-5 DEB LEO 2025-01-20 03:15:30 0.001465555 142.0 (m) DEBRIS
COSMOS 2251 DEB LEO 2025-01-06 16:38:02 0.0001013157 379.0 (m) DEBRIS
COSMOS 1741 LEO 2025-01-02 16:19:14 0.0002337174 407.0 (m) PAYLOAD
COSMOS 2251 DEB LEO 2024-12-26 03:52:07 0.000103875 812.0 (m) DEBRIS

Associated space launch

18 Low Earth Orbit communication satellites with Ku, Q and V band payloads for the G60 constellation operated by Shanghai Spacecom Satellite Technology (SSST) with funding backed by the Shanghai local government. Initial constellation will consist of 1296 satellites by 2027 with long term plans to expand it to 12000 satellites.

CZ-6A DEB was lifted into orbit during the mission ‘Long March 6A | G60 Polar Group 01’, on board a Long March 6A space rocket.

The launch took place on Aug. 6, 2024, 6:42 a.m. from Launch Complex 9A.

For more information about the launch, click the button.

Launch to space Long March 6A | G60 Polar Group 01
Long March 6A | G60 Polar Group 01

Agency: N/A

Status: Launch Successful

Launch date: Aug. 6, 2024, 6:42 a.m. UTC

Rocket: Long March 6A

Launch pad: Launch Complex 9A

Location: Taiyuan Satellite Launch Center, People's Republic of China

...

Latest news about this satellite

News about space launch
Brightness of first Chinese broadband constellation satellites alarms astronomers

The first satellites of a Chinese broadband constellation are significantly brighter than those of Western systems, posing a new challenge for astronomers.

News about space launch
Chinese rocket stage breaks up into cloud of more than 700 pieces of space debris

HELSINKI — A Chinese Long March 6A rocket’s upper stage has fragmented into a cloud of over 700 pieces of space debris, adding to concerns about long-term orbital safety. China […]

News about space launch
China's Thousand Sails Megaconstellation Kicks Off with Dangerous Debris Field

China's Thousand Sails Megaconstellation Kicks Off with Dangerous Debris Field


Newsletter sign-up

Weekly statistics, charts and insights to help you stay on top of the space industry.